Theta_e
341 336 336 337 337 337 337 336 338 338 339 339 339 341 341 340 341 340 341 341 341 341 340 340 340 339 339 339 338 338 338 337 337 337 337 337 337 338 339 339 339 338 336
341 336 337 337 338 337 337 337 338 336 337 338 338 338 340 341 341 341 341 340 340 338 339 339 339 339 339 339 338 337 337 336 337 336 336 336 336 335 334 334 333 332 331
341 336 337 339 339 339 337 337 336 335 336 337 337 337 338 338 338 338 338 338 337 338 338 338 337 337 337 336 335 335 335 335 336 336 334 335 334 333 332 331 329 331 330
341 337 336 338 339 340 336 336 335 334 335 335 335 335 336 336 336 336 336 335 336 336 336 335 334 334 334 333 333 333 333 334 333 334 333 334 332 330 329 327 325 324 324
341 339 338 339 339 339 335 335 334 334 334 333 332 332 332 333 333 333 332 332 332 331 331 331 330 329 329 329 329 329 329 330 331 332 331 331 331 329 328 325 321 317 316
342 340 339 339 340 338 334 333 333 332 332 333 331 331 331 331 332 332 332 330 329 329 327 327 327 327 327 327 327 327 328 328 328 328 328 326 322 321 323 322 319 318 317
342 339 339 339 339 336 334 333 330 330 331 328 328 328 328 328 329 329 329 327 326 323 321 319 319 318 320 320 320 322 324 326 326 326 319 318 317 319 321 321 320 318 315
342 339 338 339 337 335 332 330 329 329 329 328 326 326 327 326 326 326 323 321 319 318 315 314 314 312 311 313 312 312 311 312 313 314 315 314 313 311 318 320 319 315 314
339 340 338 338 336 335 331 329 327 327 326 327 326 326 326 323 324 323 322 319 317 314 310 310 310 310 310 310 310 309 309 308 308 309 309 310 310 310 312 316 313 313 310
334 338 338 337 335 334 331 327 326 325 324 324 324 322 319 319 319 318 319 317 312 310 311 311 311 310 310 310 310 310 310 309 309 307 305 304 304 303 303 305 307 310 311
329 334 335 334 332 330 326 323 323 321 319 318 318 314 313 314 314 315 316 315 312 310 309 309 309 310 310 311 311 310 310 309 306 302 301 299 301 303 301 301 303 303 302
324 326 326 327 326 323 321 317 316 317 317 312 310 309 308 309 310 312 314 314 312 311 309 308 306 308 308 308 307 305 308 305 301 298 297 296 296 297 297 297 298 301 303
320 318 317 317 316 315 314 312 312 313 312 310 309 308 308 308 308 309 309 310 311 309 305 303 302 301 301 300 300 300 300 299 298 296 296 295 295 295 296 296 297 297 298
315 314 314 314 313 314 314 313 312 312 310 310 309 309 308 309 309 309 309 306 304 303 302 301 300 299 299 298 299 298 297 297 297 296 295 295 295 295 296 296 297 297 299
313 313 313 313 313 311 312 311 311 311 312 312 310 310 309 306 305 304 303 303 302 302 301 300 299 299 299 298 298 297 297 297 297 296 295 295 295 295 296 296 296 296 296
311 310 310 310 309 309 308 307 308 309 309 310 310 310 305 304 303 303 302 302 303 302 301 301 300 299 299 299 299 299 298 297 296 295 295 294 294 294 294 295 295 295 296
312 310 310 309 309 308 305 303 300 301 302 303 304 303 303 303 302 302 302 302 301 300 300 299 299 299 299 298 298 297 296 296 295 294 294 294 293 293 294 294 294 295 295
312 310 307 303 300 298 297 297 297 297 297 298 300 302 302 301 301 301 302 302 301 300 300 300 300 300 299 298 297 297 296 295 295 294 294 293 293 293 293 293 293 294 295
304 301 299 298 298 297 297 296 296 296 296 297 299 300 300 299 300 300 301 302 302 301 301 300 300 299 297 297 296 296 296 296 295 294 294 293 293 293 293 292 293 293 294
300 300 300 300 299 299 297 296 296 296 297 298 299 299 299 298 299 299 300 300 301 301 301 300 299 299 297 296 296 296 296 296 296 294 294 293 293 293 292 292 293 293 293
301 302 302 302 301 301 300 298 297 297 297 298 299 299 299 298 299 299 299 299 299 299 299 299 298 298 297 297 296 296 296 296 295 294 294 293 293 293 292 292 292 292 292
304 303 303 303 303 302 301 301 300 298 298 298 298 299 298 298 299 300 300 299 298 298 298 298 297 297 297 297 296 296 296 296 296 295 294 293 293 293 292 292 292 292 292
307 307 306 305 305 303 302 302 302 302 302 301 301 299 299 299 300 301 300 300 299 298 298 298 297 297 297 297 296 296 296 296 296 295 294 293 294 291 292 292 292 292 292
308 309 310 311 311 309 308 306 306 305 304 304 304 303 303 302 302 301 300 299 299 299 298 298 297 297 297 297 296 296 295 295 296 295 294 294 293 288 292 292 292 292 292
309 308 308 310 310 309 309 308 308 308 308 307 306 306 305 303 301 301 300 299 299 299 298 298 298 298 298 297 296 294 292 293 294 294 294 291 288 288 291 292 292 292 292
308 307 307 308 309 310 309 309 309 308 307 307 306 306 306 305 302 300 300 299 299 299 299 298 298 298 298 297 296 294 294 292 291 290 290 291 288 288 292 292 293 293 294
Wind_Speed
9 7 5 3 4 6 8 11 11 11 12 10 6 1 5 7 8 8 9 9 10 11 12 16 19 19 17 14 11 8 7 7 4 3 5 6 8 7 6 4 7 8 9
10 8 6 3 3 5 7 9 10 13 12 12 10 8 5 5 6 5 6 7 7 7 11 17 16 15 13 14 13 11 7 6 7 5 3 4 5 7 9 8 7 6 4
11 9 8 3 3 3 5 7 10 13 14 13 14 15 13 12 12 11 9 8 7 8 8 8 13 14 15 15 12 8 5 4 3 1 1 0 2 5 7 7 7 7 7
13 11 9 6 3 3 4 7 9 12 15 17 17 16 15 14 13 13 12 12 11 9 8 7 6 4 5 6 7 6 5 4 1 1 2 2 3 3 6 8 7 6 7
14 14 11 9 7 7 7 8 9 11 13 15 18 19 18 18 17 18 18 19 17 17 15 13 10 8 6 5 4 2 1 1 2 2 2 1 3 3 3 5 6 10 11
17 16 11 10 12 11 11 9 10 11 13 14 16 15 16 14 9 10 12 14 15 15 16 15 14 12 10 8 5 2 1 0 0 3 5 5 9 9 8 2 11 7 4
19 13 12 12 14 13 12 11 10 9 10 13 14 15 15 14 11 11 12 15 17 17 16 14 16 16 15 16 16 13 11 6 4 4 11 8 9 11 10 7 7 9 6
22 17 17 18 18 15 14 13 12 10 10 11 12 12 11 13 10 11 12 15 16 17 17 17 19 18 18 19 21 25 26 25 22 21 20 17 14 13 11 11 12 16 13
12 16 20 23 21 20 18 16 14 11 11 12 12 10 11 11 8 9 11 15 19 20 19 17 18 18 15 14 18 22 23 24 22 22 22 20 19 16 11 10 9 5 4
2 11 20 24 24 24 21 19 16 13 14 13 15 13 12 12 9 8 10 16 22 22 21 20 18 17 14 13 15 14 17 14 14 15 18 19 20 21 20 18 11 8 5
1 11 20 23 21 21 21 19 18 17 16 16 16 14 13 12 11 8 9 16 20 20 20 20 18 14 14 14 12 12 12 12 14 16 18 19 18 16 17 16 14 14 12
6 10 15 18 20 21 21 20 18 19 19 19 19 17 15 14 11 10 12 15 18 20 19 17 15 14 14 14 15 15 14 13 14 17 18 18 17 16 14 13 11 9 8
10 12 14 16 18 19 19 19 18 18 21 22 21 20 17 17 16 13 12 14 15 19 18 17 18 19 19 20 17 16 15 15 16 18 16 15 14 13 10 8 9 7 7
15 16 15 17 17 17 17 16 16 17 18 20 19 20 17 16 16 15 15 16 17 19 19 20 18 19 18 17 17 17 17 16 15 15 15 14 13 13 13 11 10 8 10
18 19 19 20 20 21 19 14 13 11 12 17 17 19 19 18 17 17 17 16 16 16 17 16 15 15 16 17 16 15 14 13 13 13 13 13 13 12 11 10 11 10 10
20 20 21 22 22 22 22 21 17 14 12 13 14 17 20 20 18 14 13 12 12 12 13 13 11 10 10 10 9 9 9 9 9 10 10 10 10 9 9 10 9 8 7
20 20 21 21 22 21 21 21 22 15 14 13 13 15 16 16 14 13 13 12 11 10 13 11 9 7 6 7 7 7 6 5 8 8 9 8 8 8 8 9 9 8 5
22 21 21 20 18 17 16 17 17 18 17 15 12 13 14 13 11 10 9 10 8 8 8 6 4 5 7 5 4 6 6 7 5 5 7 7 7 6 6 7 8 8 5
21 20 19 18 16 15 14 14 12 12 13 15 15 13 12 9 7 7 8 8 7 8 6 6 8 7 5 6 4 3 2 5 3 2 3 5 5 4 3 4 5 5 3
18 17 15 14 13 12 11 10 10 9 10 12 13 13 11 7 5 5 6 8 8 8 9 8 9 8 7 6 3 0 2 6 7 5 1 1 4 3 2 3 4 4 1
14 13 11 10 9 9 8 8 8 9 10 11 12 12 10 9 8 6 6 6 5 5 6 8 9 11 10 9 6 3 3 5 7 7 4 2 2 4 3 2 3 3 2
11 10 11 11 11 11 11 11 10 11 12 11 12 13 12 12 11 11 9 10 8 6 6 6 7 8 11 11 9 9 9 6 6 10 8 5 4 5 4 3 2 1 0
11 12 14 17 17 18 19 19 18 18 17 16 14 16 16 16 17 16 14 14 13 11 9 7 7 6 6 9 12 12 13 12 13 11 9 7 6 6 5 4 2 1 2
13 16 20 23 23 25 25 27 25 24 23 22 22 22 19 20 21 20 17 15 15 14 13 11 9 9 10 12 13 13 11 9 8 9 10 9 9 7 6 4 4 3 4
4 7 9 12 17 20 21 22 22 21 22 22 23 24 24 22 21 22 20 19 19 19 17 15 17 16 16 14 12 9 8 9 9 10 11 10 8 8 8 6 5 5 4
4 6 9 11 13 17 19 18 19 21 21 23 25 25 24 24 24 26 25 24 24 23 22 19 19 20 18 18 14 11 8 8 10 10 9 9 9 11 10 7 6 6 5
Wind_Direction
201 185 162 116 54 33 20 21 30 28 28 23 27 165 201 194 194 201 219 230 236 238 231 220 211 199 192 197 192 197 207 204 209 281 328 350 13 41 77 141 181 227 222
200 180 157 127 56 40 31 29 39 39 39 40 47 61 94 142 160 175 185 206 224 231 221 211 194 194 207 214 211 195 195 208 220 245 303 36 90 103 105 115 116 124 140
197 183 183 155 100 59 49 49 55 55 56 66 66 70 84 94 97 101 108 123 142 164 169 181 184 187 180 177 169 162 150 137 122 121 16 37 136 147 121 108 101 98 99
200 198 194 195 170 125 94 84 75 69 72 74 75 78 81 88 92 97 102 102 107 112 123 137 147 157 165 164 168 164 160 142 164 162 149 144 125 123 134 119 110 109 100
205 209 202 191 175 147 127 110 94 85 83 85 85 82 82 83 88 93 94 94 95 94 94 96 98 106 102 96 98 84 77 68 131 159 116 71 122 175 216 186 142 123 98
209 208 204 191 168 152 138 124 105 96 92 93 86 83 78 77 87 94 102 100 97 95 91 89 90 90 86 78 66 38 335 155 351 40 46 32 18 13 20 132 152 127 97
213 201 188 178 160 153 146 133 114 105 109 98 94 92 88 84 82 91 100 103 103 97 93 93 90 85 87 87 79 74 67 64 73 96 85 65 52 35 30 53 123 96 82
215 196 180 176 168 162 156 139 129 121 111 109 104 98 96 95 93 97 99 100 101 98 95 97 98 96 94 95 92 85 81 77 77 79 77 75 70 60 64 87 109 103 90
198 198 191 186 175 165 158 149 138 133 124 121 124 118 114 102 99 97 102 101 104 104 99 95 97 95 90 88 87 89 87 84 79 77 77 75 70 69 77 91 81 90 84
165 204 202 193 183 168 163 156 147 145 131 126 128 122 115 104 98 93 104 108 107 105 101 96 92 93 91 85 82 85 88 86 86 82 74 71 68 67 66 64 61 73 89
116 167 187 191 181 167 159 154 148 139 130 126 125 120 116 112 110 113 124 124 121 113 104 97 92 88 80 76 78 80 88 97 91 81 78 73 66 62 55 50 49 54 61
132 150 157 168 163 157 152 144 141 139 132 125 119 109 104 102 106 110 118 122 126 118 104 96 89 86 87 86 84 81 95 97 91 83 73 62 56 52 47 42 42 47 52
131 132 134 138 142 142 143 136 137 134 135 134 131 120 112 113 112 114 114 118 119 114 109 103 100 93 90 88 87 87 87 87 85 79 70 61 52 41 30 37 46 59 51
128 123 124 125 127 131 131 138 140 138 137 137 133 126 126 120 119 122 121 119 115 113 112 109 101 91 84 88 88 87 86 82 80 77 71 61 50 44 45 50 55 57 59
124 124 123 125 124 121 120 122 128 134 152 148 145 141 138 127 124 123 123 121 119 117 117 114 108 96 87 88 88 84 85 83 78 73 68 57 46 43 46 62 65 61 60
123 122 125 127 127 123 119 112 107 107 121 129 137 143 135 131 131 128 122 121 124 126 122 116 112 110 102 94 93 88 88 82 84 86 71 54 47 45 54 51 50 50 47
131 130 132 134 132 133 132 127 119 117 119 122 129 135 135 133 133 131 127 131 125 126 120 122 123 119 112 108 95 97 87 82 104 89 66 48 45 51 51 47 40 38 36
130 133 133 133 130 132 128 130 132 134 128 125 130 139 138 137 139 140 139 139 136 139 134 137 141 137 133 120 106 119 117 122 117 89 62 47 46 43 46 42 36 24 19
132 132 131 130 129 129 129 130 133 133 134 137 145 150 148 153 160 170 177 179 179 182 177 171 170 167 154 143 127 145 166 189 190 130 67 51 38 22 28 27 16 9 14
134 134 135 135 134 134 138 143 140 142 150 159 168 166 166 175 180 182 197 207 209 214 211 204 200 203 197 182 157 63 329 228 220 202 187 44 22 4 351 360 358 345 353
147 148 155 157 164 171 172 177 171 174 183 190 193 193 189 195 196 199 203 198 202 212 221 226 234 225 219 213 215 257 287 283 227 218 228 235 336 340 301 322 340 342 126
173 185 201 213 213 215 215 216 213 213 208 208 209 211 210 217 224 234 242 234 227 220 221 239 239 234 232 219 225 241 243 244 246 235 232 236 287 314 276 285 304 136 119
213 221 234 240 243 243 242 236 233 235 235 231 230 228 225 234 242 249 254 244 234 235 237 247 212 218 218 228 239 249 254 259 254 242 233 244 278 291 240 258 237 248 316
242 257 264 266 260 256 248 245 248 247 248 245 247 243 241 245 248 251 249 237 235 236 238 232 223 230 243 248 251 264 271 261 242 235 237 255 276 245 223 245 214 262 296
216 274 288 287 267 250 247 243 245 245 244 244 242 241 244 248 250 247 250 242 238 235 238 238 236 241 247 243 249 263 256 241 239 239 251 258 246 223 217 220 241 251 265
295 324 312 300 276 253 246 244 244 244 246 249 245 243 246 246 250 249 249 245 243 241 241 244 249 251 250 239 244 238 239 240 240 243 242 248 240 216 210 220 252 250 253